This demonstration page uses our WeatherBlox Daily Observations layout. Learn more.

Left ArrowRight Arrow

Hourly Observations for May 10, 2017

Temp ( °F °C ) Dew Point ( °F °C ) Humidity (%) Winds ( mph kmh ) Pressure ( in mb ) Visibility ( mi km ) Precip ( " mm )
12:56 am 00:56 Mostly Cloudy 64 17.8 45 7.2 50 50 NE 12 19 29.86 1011 10 16 0.00 0.00
1:56 am 01:56 Cloudy 63 17.1 46 7.7 54 54 NNE 9 15 29.85 1011 10 16 0.00 0.00
2:20 am 02:20 Cloudy with Light Rain 63 17 46 8 56 56 NNE 8 13 29.83 1010 10 16 0.00 0.00
2:25 am 02:25 Cloudy with Light Rain 63 17 48 9 59 59 NNE 10 17 29.84 1011 10 16 0.00 0.00
2:53 am 02:53 Mostly Cloudy 57 14 52 11 82 82 NNE 6 9 29.85 1011 10 16 0.00 0.00
2:56 am 02:56 Cloudy 58 14.3 51 10.3 77 77 NNE 8 13 29.85 1011 10 16 0.03 0.76
2:58 am 02:58 Cloudy with Light Rain 57 14 50 10 77 77 NNE 7 11 29.85 1011 10 16 0.00 0.00
3:37 am 03:37 Cloudy with Thunderstorms 57 14 52 11 82 82 ENE 7 11 29.85 1011 10 16 0.00 0.00
3:56 am 03:56 Cloudy with Light Rain 57 13.9 52 11.2 84 84 NE 16 26 29.77 1008 10 16 0.03 0.76
4:17 am 04:17 Mostly Cloudy with Light Rain 57 14 52 11 82 82 WNW 15 24 29.87 1011 10 16 0.00 0.00
4:19 am 04:19 Mostly Cloudy 57 14 52 11 82 82 WNW 14 22 29.87 1011 10 16 0.00 0.00
4:56 am 04:56 Partly Cloudy 58 14.4 51 10.8 79 79 NNE 9 15 29.83 1010 10 16 0.01 0.25
5:10 am 05:10 Mostly Cloudy with Thunderstorms 57 14 52 11 82 82 ENE 12 19 29.82 1010 10 16 0.00 0.00
5:19 am 05:19 Cloudy with Thunderstorms 59 15 52 11 77 77 ENE 12 19 29.82 1010 10 16 0.00 0.00
5:31 am 05:31 Cloudy with Strong Thunderstorms 57 14 54 12 88 88 NE 16 26 29.82 1010 1 2 0.00 0.00
5:33 am 05:33 Cloudy with Strong Thunderstorms 57 14 54 12 88 88 NNE 15 24 29.80 1009 1 2 0.00 0.00
5:35 am 05:35 Cloudy with Strong Thunderstorms 57 14 54 12 88 88 NE 13 20 29.80 1009 5 8 0.00 0.00
5:38 am 05:38 Cloudy with Thunderstorms 57 14 54 12 88 88 NE 10 17 29.82 1010 4 6 0.00 0.00
5:39 am 05:39 Cloudy with Thunderstorms 57 14 54 12 88 88 NE 9 15 29.83 1010 5 8 0.00 0.00
5:46 am 05:46 Cloudy with Thunderstorms 57 14 54 12 88 88 NNE 9 15 29.83 1010 10 16 0.00 0.00
5:56 am 05:56 Cloudy with Thunderstorms 57 13.9 54 12.3 90 90 N 12 19 29.85 1011 10 16 0.39 9.91
6:13 am 06:13 Cloudy with Strong Thunderstorms 57 14 54 12 88 88 NE 12 19 29.85 1011 2 2 0.00 0.00
6:20 am 06:20 Cloudy with Thunderstorms 57 14 55 13 94 94 NNE 10 17 29.85 1011 4 6 0.00 0.00
6:21 am 06:21 Cloudy with Thunderstorms 57 14 55 13 94 94 NNE 9 15 29.85 1011 5 8 0.00 0.00
6:41 am 06:41 Cloudy with Thunderstorms 57 14 55 13 94 94 NE 9 15 29.85 1011 10 16 0.00 0.00
6:45 am 06:45 Cloudy with Thunderstorms 57 14 55 13 94 94 NE 5 7 29.85 1011 10 16 0.00 0.00
6:56 am 06:56 Cloudy with Strong Thunderstorms 57 13.8 55 12.7 93 93 N 6 9 29.85 1011 6 10 0.37 9.40
6:58 am 06:58 Cloudy with Heavy Rain and Nearby Thunderstorms 57 14 55 13 94 94 NNE 9 15 29.83 1010 5 8 0.00 0.00
7:10 am 07:10 Cloudy 57 14 55 13 94 94 NNE 6 9 29.85 1011 10 16 0.00 0.00
7:24 am 07:24 Cloudy with Thunderstorms 57 14 55 13 94 94 NNE 9 15 29.85 1011 10 16 0.00 0.00
7:56 am 07:56 Cloudy with Thunderstorms 58 14.2 56 13.1 93 93 NNE 13 20 29.82 1010 10 16 0.01 0.25
7:57 am 07:57 Cloudy 57 14 55 13 94 94 NNE 13 20 29.82 1010 10 16 0.00 0.00
8:37 am 08:37 Cloudy 59 15 57 14 94 94 NE 12 19 29.81 1009 10 16 0.00 0.00
8:47 am 08:47 Cloudy 59 15 57 14 94 94 NE 9 15 29.81 1009 10 16 0.00 0.00
8:56 am 08:56 Cloudy 60 15.3 57 14 92 92 ENE 6 9 29.82 1010 10 16 0.00 0.00
9:16 am 09:16 Cloudy 61 16 59 15 94 94 NE 7 11 29.80 1009 10 16 0.00 0.00
9:32 am 09:32 Cloudy with Thunderstorms 61 16 59 15 94 94 W 18 30 29.87 1011 10 16 0.00 0.00
9:36 am 09:36 Cloudy with Thunderstorms 61 16 57 14 88 88 WNW 25 41 29.86 1011 9 14 0.00 0.00
9:44 am 09:44 Cloudy with Strong Thunderstorms 59 15 57 14 94 94 WNW 12 19 29.87 1011 1 2 0.00 0.00
9:46 am 09:46 Cloudy with Strong Thunderstorms 59 15 57 14 94 94 WNW 10 17 29.87 1011 N/A 0.00 0.00
9:56 am 09:56 Cloudy with Strong Thunderstorms 59 14.8 57 13.7 93 93 Calm 29.85 1011 7 11 0.58 14.73
10:01 am 10:01 Cloudy with Strong Thunderstorms 59 15 57 14 94 94 ESE 3 6 29.85 1011 3 4 0.00 0.00
10:11 am 10:11 Cloudy with Thunderstorms 59 15 57 14 94 94 ENE 12 19 29.82 1010 5 8 0.00 0.00
10:16 am 10:16 Cloudy with Light Rain 59 15 57 14 94 94 NE 10 17 29.81 1010 5 8 0.00 0.00
10:20 am 10:20 Cloudy with Heavy Rain 59 15 57 14 94 94 NE 12 19 29.80 1009 3 5 0.00 0.00
10:50 am 10:50 Cloudy 61 16 59 15 94 94 NNE 6 9 29.82 1010 10 16 0.00 0.00
10:56 am 10:56 Cloudy 60 15.7 58 14.7 94 94 NE 6 9 29.82 1010 10 16 0.11 2.79
11:10 am 11:10 Cloudy with Light Rain 61 16 59 15 94 94 NE 6 9 29.82 1010 10 16 0.00 0.00
11:26 am 11:26 Cloudy 63 17 59 15 88 88 E 5 7 29.83 1010 10 16 0.00 0.00
11:56 am 11:56 Cloudy 62 16.8 59 15 89 89 SW 5 7 29.85 1011 10 16 0.00 0.03
12:05 pm 12:05 Cloudy with Light Rain 63 17 59 15 88 88 Calm 29.84 1011 10 16 0.00 0.00
12:19 pm 12:19 Cloudy 63 17 59 15 88 88 SW 3 6 29.84 1011 10 16 0.00 0.00
12:47 pm 12:47 Cloudy 64 18 61 16 88 88 SSW 5 7 29.84 1011 10 16 0.00 0.00
12:56 pm 12:56 Cloudy 64 18 61 16.1 89 89 SW 5 7 29.84 1011 10 16 0.00 0.03
1:26 pm 13:26 Mostly Cloudy 66 19 61 16 83 83 WNW 9 15 29.83 1010 10 16 0.00 0.00
1:36 pm 13:36 Cloudy 66 19 63 17 88 88 NNW 8 13 29.83 1010 10 16 0.00 0.00
1:46 pm 13:46 Cloudy 66 19 61 16 83 83 NNW 6 9 29.82 1010 10 16 0.00 0.00
1:56 pm 13:56 Cloudy 65 18.6 61 16.2 86 86 N 9 15 29.82 1010 10 16 0.00 0.00
2:36 pm 14:36 Cloudy 64 18 61 16 88 88 N 14 22 29.83 1010 10 16 0.00 0.00
2:37 pm 14:37 Cloudy 63 17 61 16 94 94 N 12 19 29.83 1010 10 16 0.00 0.00
2:47 pm 14:47 Cloudy 63 17 59 15 88 88 N 12 19 29.83 1010 9 14 0.00 0.00
2:56 pm 14:56 Cloudy 62 16.7 59 14.9 89 89 N 8 13 29.83 1010 8 13 0.00 0.00
3:06 pm 15:06 Cloudy 63 17 59 15 88 88 NNW 12 19 29.84 1011 10 16 0.00 0.00
3:16 pm 15:16 Cloudy 63 17 59 15 88 88 N 12 19 29.84 1011 10 16 0.00 0.00
3:46 pm 15:46 Cloudy 63 17 59 15 88 88 NNW 14 22 29.87 1011 7 11 0.00 0.00
3:56 pm 15:56 Cloudy 62 16.5 58 14.7 89 89 NNW 12 19 29.88 1012 7 11 0.00 0.00
4:36 pm 16:36 Cloudy 63 17 59 15 88 88 N 9 15 29.88 1012 8 13 0.00 0.00
4:56 pm 16:56 Cloudy 62 16.7 59 14.9 89 89 NNW 10 17 29.88 1012 7 11 0.00 0.00
5:46 pm 17:46 Cloudy 63 17 59 15 88 88 N 13 20 29.89 1012 10 16 0.00 0.00
5:56 pm 17:56 Cloudy 62 16.8 59 15 89 89 NNW 13 20 29.89 1012 10 16 0.00 0.00
6:16 pm 18:16 Cloudy 63 17 59 15 88 88 N 10 17 29.88 1012 10 16 0.00 0.00
6:26 pm 18:26 Cloudy 63 17 59 15 88 88 N 10 17 29.89 1012 9 14 0.00 0.00
6:46 pm 18:46 Cloudy 63 17 57 14 83 83 N 13 20 29.89 1012 10 16 0.00 0.00
6:56 pm 18:56 Cloudy 62 16.8 58 14.3 85 85 N 13 20 29.89 1012 10 16 0.00 0.00
7:46 pm 19:46 Cloudy 61 16 57 14 88 88 NNE 9 15 29.90 1012 10 16 0.00 0.00
7:56 pm 19:56 Cloudy 61 16.1 57 13.7 86 86 N 13 20 29.91 1013 10 16 0.00 0.00
8:06 pm 20:06 Cloudy 61 16 57 14 88 88 N 8 13 29.92 1013 10 16 0.00 0.00
8:56 pm 20:56 Cloudy 61 15.9 55 13 83 83 N 8 13 29.96 1014 10 16 0.00 0.00
9:56 pm 21:56 Clear 59 14.9 54 12.4 85 85 N 6 9 29.97 1015 10 16 0.00 0.00
10:56 pm 22:56 Partly Cloudy 57 14 53 11.7 86 86 NNW 6 9 29.99 1016 10 16 0.00 0.00
11:56 pm 23:56 Mostly Clear 57 14 51 10.8 81 81 N 6 9 29.98 1015 10 16 0.00 0.00

Powered by AerisWeather